Wind_Speed
30 32 34 32 31 31 32 32 32 32 31 30 29 29 30 31 31 32 33 31 29 26 24 23 23 24 23 21 20 19 19 19 18 15 13 10 8 9 9 9 9 8 8 9 9 9 11 12 13 16 19 20 18 18 19 21 22 22 22 21 22 22 23 23 23 22 22 21 22 23 22 21 23 24 24 24 25 26 23 20 18 19 19 19 20 22 23
24 26 29 30 31 32 33 33 33 33 32 31 31 30 30 31 31 32 33 33 32 29 27 25 24 23 22 20 19 18 17 17 16 15 14 12 10 9 9 8 9 9 9 9 10 11 12 12 14 17 20 19 18 18 20 22 22 21 22 22 21 22 22 22 22 22 23 22 23 24 23 22 23 24 23 22 22 22 20 18 18 18 19 19 19 21 23
22 23 26 28 30 31 33 34 34 34 34 32 31 30 31 31 31 31 32 33 33 32 30 28 27 25 23 20 19 19 17 16 14 13 13 13 12 12 12 13 13 13 13 13 13 13 14 15 17 18 19 20 19 18 19 21 20 20 20 20 20 21 21 21 21 21 22 22 22 22 22 21 21 21 21 21 21 21 19 18 18 18 18 19 20 20 22
20 23 24 27 29 31 32 34 35 35 34 33 32 31 31 31 31 31 31 32 32 32 31 31 29 27 24 21 20 20 19 18 17 17 16 16 15 14 14 16 17 16 16 16 16 16 16 17 18 18 18 19 19 18 18 17 17 18 19 19 20 20 20 20 20 19 19 21 23 23 22 22 22 21 21 21 22 22 21 21 21 20 19 20 20 21 22
19 21 24 26 27 29 32 34 35 35 34 33 32 32 32 32 32 31 31 32 32 32 31 31 30 28 26 23 21 19 18 18 18 19 19 18 17 16 16 18 19 19 18 18 18 17 17 18 18 18 18 19 19 20 19 18 18 19 21 21 21 21 21 21 21 21 21 22 22 23 23 22 22 22 22 21 22 23 24 23 22 22 21 21 22 23 24
17 16 18 22 25 28 30 31 31 33 34 33 32 32 32 31 31 32 32 32 31 31 32 32 31 30 28 26 24 22 21 20 18 18 19 18 18 19 18 19 22 21 19 18 19 20 19 18 18 18 18 19 21 22 22 21 21 22 23 25 25 25 24 23 23 25 25 25 23 23 23 24 23 22 22 23 24 24 24 23 23 23 23 23 23 25 27
20 16 14 14 16 19 22 25 27 29 31 33 33 33 33 31 30 30 32 33 32 31 32 33 33 33 31 29 27 25 24 23 22 22 22 21 21 22 21 20 23 23 20 19 21 21 19 17 18 19 20 21 22 23 24 23 23 24 25 25 25 25 25 24 24 25 26 26 26 25 25 25 25 24 24 24 24 24 24 24 24 25 25 26 25 27 29
23 22 20 17 14 13 14 17 22 26 28 29 31 32 33 33 32 30 30 31 31 32 33 33 33 33 31 29 28 27 27 27 25 23 21 21 22 24 24 25 27 26 22 21 22 22 20 19 20 21 22 23 24 24 24 23 24 23 23 24 24 25 25 24 25 26 27 27 28 28 28 28 27 26 26 26 26 26 26 26 26 25 26 27 28 28 29
26 26 25 24 22 19 17 16 15 18 20 22 24 26 29 31 33 33 32 32 32 33 33 33 33 32 31 29 27 27 27 27 25 22 21 22 22 23 26 29 31 30 27 26 26 25 23 22 21 22 23 23 23 24 24 24 23 22 22 24 25 25 26 26 27 28 28 28 29 30 31 31 29 27 27 28 28 28 28 28 28 28 29 29 29 29 30
27 28 27 27 26 25 23 19 15 13 14 16 17 20 24 28 31 33 34 35 36 35 34 33 32 31 30 30 28 27 27 27 26 25 24 24 24 25 29 32 32 30 27 26 26 26 25 24 23 24 24 24 25 25 25 25 23 21 21 23 24 24 26 27 28 29 30 30 31 32 32 32 30 30 30 30 29 29 29 29 30 30 31 32 32 32 33
25 26 25 24 24 23 22 21 18 16 14 13 14 16 18 21 24 27 29 31 34 36 36 35 34 31 30 29 28 28 29 31 31 30 26 25 27 30 34 37 36 32 29 28 28 29 29 28 27 27 26 27 27 27 28 27 25 22 20 22 25 26 25 26 27 28 29 30 31 32 31 31 31 30 30 30 30 30 30 31 32 33 33 35 35 36 37
22 22 21 21 20 19 19 19 19 19 15 12 13 17 18 18 19 22 25 27 30 33 35 36 36 34 32 29 26 25 26 29 32 31 28 29 30 29 31 37 37 34 31 31 31 31 31 30 30 29 29 29 27 27 28 29 29 28 26 25 26 26 26 25 25 26 27 29 31 32 32 31 30 30 31 32 33 33 34 34 34 34 35 36 38 39 40
18 18 18 18 18 17 17 17 17 18 18 16 17 18 19 20 20 20 22 25 27 29 32 34 35 34 32 28 23 22 23 26 29 31 32 32 29 24 24 30 34 34 33 33 32 32 32 31 31 32 32 31 29 28 27 28 30 32 32 29 27 27 27 26 26 27 28 31 33 34 33 32 31 31 32 33 35 35 35 35 35 35 35 36 37 38 40
16 16 16 15 16 16 16 16 16 17 18 20 21 19 18 18 19 19 20 22 24 25 27 29 30 30 30 28 26 26 27 28 28 30 33 32 26 21 21 23 25 28 29 30 31 31 31 31 31 32 32 32 30 29 29 30 31 33 35 36 35 34 33 32 31 31 32 34 36 37 38 38 37 37 37 37 39 39 40 40 40 41 41 41 42 42 43
16 16 15 14 14 14 15 16 17 17 18 21 24 23 21 19 18 18 18 20 22 23 24 25 27 28 29 30 31 32 33 33 32 32 34 34 29 26 25 25 24 24 24 24 26 26 27 28 29 29 30 30 30 31 32 33 34 36 38 40 41 41 41 41 41 40 41 42 43 45 46 47 46 45 44 45 46 47 47 47 47 48 48 49 49 49 50
15 15 15 14 14 15 15 16 17 17 18 19 22 24 24 23 21 19 17 18 21 23 24 25 26 27 28 28 30 33 35 36 36 36 37 37 36 36 36 35 34 32 29 27 26 27 27 29 30 31 32 33 34 35 36 37 38 39 41 43 44 45 45 46 47 47 48 48 49 49 50 51 50 50 49 50 50 51 51 51 51 52 52 52 52 53 53
14 14 15 15 16 17 17 17 18 18 19 20 20 22 23 23 23 23 22 21 22 24 25 27 27 25 25 26 28 31 33 33 33 35 36 37 38 39 39 38 36 36 35 32 30 29 29 30 31 32 33 34 35 36 38 39 40 41 43 44 45 46 47 48 49 49 50 50 50 51 51 52 52 52 52 52 52 53 53 53 53 53 52 52 52 52 52
13 14 15 16 17 18 18 19 20 20 20 21 21 22 23 24 24 25 26 26 25 25 25 27 28 26 26 27 28 30 31 31 32 33 34 36 37 37 36 35 34 33 33 32 31 30 30 30 31 31 31 32 33 33 34 35 36 38 39 40 42 43 45 46 47 48 49 50 50 51 51 51 51 52 52 52 52 52 52 52 52 52 52 51 51 51 51
13 14 15 16 17 18 19 20 21 22 22 23 23 24 24 25 25 26 28 29 29 29 27 27 28 29 29 30 30 31 32 34 34 35 35 36 37 37 36 34 33 32 31 31 31 31 31 32 32 32 32 32 33 33 33 34 35 36 37 37 39 40 41 42 43 44 45 46 47 48 48 49 50 50 51 51 52 52 52 53 53 53 53 53 53 53 53
13 14 14 15 17 18 19 20 21 23 24 25 25 26 26 26 27 27 28 29 30 32 31 31 31 32 33 33 34 34 35 36 36 36 35 35 36 37 37 36 35 34 33 33 33 34 34 34 34 34 35 35 35 35 35 36 36 37 37 38 39 39 40 41 42 43 44 45 46 46 47 48 49 50 50 51 52 52 53 53 53 54 54 54 54 54 54
12 13 14 16 17 17 19 20 21 22 24 25 26 27 28 28 28 29 29 30 30 31 33 33 34 34 35 37 38 40 40 40 40 39 37 37 37 38 38 38 38 38 37 37 37 38 38 38 39 39 39 39 38 38 38 38 38 38 39 39 40 41 42 43 43 44 45 46 47 48 49 50 51 51 52 52 53 54 54 54 54 54 54 55 55 55 56
12 13 14 15 16 17 18 20 21 22 23 24 25 26 27 28 29 30 31 32 32 33 34 34 35 36 37 38 40 41 42 43 44 44 44 43 43 42 41 41 41 41 41 41 41 41 41 41 41 41 41 40 40 40 40 40 40 41 42 43 43 44 45 46 46 47 48 49 49 50 51 52 53 54 54 54 55 55 56 56 57 57 57 57 57 58 58
10 11 12 14 15 16 17 19 20 21 22 24 25 26 26 27 29 30 31 33 34 35 36 36 36 37 38 39 40 41 43 44 46 47 48 47 46 45 44 43 42 41 41 41 42 42 42 42 42 42 42 42 41 42 42 43 44 44 45 46 47 47 48 48 49 50 50 51 52 52 53 54 55 56 57 57 58 58 58 59 59 60 60 61 61 62 62
9 10 11 13 14 15 16 17 19 20 21 22 23 25 26 28 28 29 31 32 34 35 37 38 38 38 39 40 41 41 42 44 45 46 47 47 47 47 46 44 43 42 41 41 41 41 41 42 42 43 43 43 44 44 45 46 47 48 48 49 50 50 51 51 52 53 53 54 55 55 56 57 57 58 59 59 59 60 61 61 60 60 60 60 60 60 60
12 13 14 15 17 18 19 20 21 22 22 23 24 25 26 27 28 29 31 32 33 34 36 37 38 39 40 40 41 42 42 43 44 45 46 47 47 47 47 46 45 44 44 43 43 44 44 44 45 45 46 46 47 48 49 50 50 51 51 52 52 53 53 54 54 55 55 56 56 57 57 57 57 57 56 56 55 56 56 56 56 55 54 53 52 52 52
16 18 19 20 21 23 24 25 26 27 27 27 28 29 29 29 30 30 31 31 32 33 34 36 37 38 39 40 41 42 43 44 45 46 47 48 48 48 48 48 48 48 47 47 47 47 47 47 48 48 48 48 49 49 50 50 51 51 51 51 51 51 52 52 52 52 52 53 53 53 53 52 51 50 50 49 48 48 48 48 48 47 46 46 45 45 46
20 22 23 24 25 27 28 30 31 32 32 32 32 33 33 34 33 33 33 33 33 33 34 35 36 37 39 39 40 41 41 42 44 45 46 47 48 48 48 48 48 48 47 46 45 45 45 45 45 45 45 45 45 46 46 46 46 46 46 46 46 46 46 46 47 47 47 47 47 46 46 45 45 44 44 43 43 42 42 42 43 43 43 43 43 43 44
24 26 27 28 30 31 33 35 36 36 35 35 34 34 35 36 37 37 36 36 35 35 34 35 35 36 37 38 39 40 40 40 41 42 43 44 44 44 45 45 45 44 43 42 41 40 40 40 40 40 40 40 40 41 41 41 41 41 41 41 41 41 41 42 42 42 42 42 42 41 40 40 39 39 38 38 38 38 38 39 40 40 39 39 38 38 37
27 28 30 32 34 36 38 38 36 34 32 32 33 34 34 35 36 37 38 38 37 37 36 36 36 36 36 37 37 38 39 39 39 40 40 41 40 40 40 40 40 40 39 39 38 37 37 37 37 37 37 37 37 37 37 37 38 38 38 37 37 37 38 38 38 38 38 37 36 36 35 35 35 35 35 35 35 35 35 35 35 34 33 32 32 31 31
28 30 31 33 36 37 37 34 31 29 27 27 27 30 31 32 33 34 36 36 37 37 37 36 36 36 36 36 36 36 37 38 38 38 39 39 38 38 38 37 37 37 37 36 36 36 36 36 35 35 35 35 35 35 35 34 35 34 34 34 34 34 34 34 34 34 34 33 33 32 32 32 33 33 33 33 33 32 31 30 29 29 28 28 28 29 29
29 30 33 35 35 34 30 28 26 26 26 26 26 26 27 29 30 31 32 33 34 35 36 36 35 35 35 35 35 35 35 36 36 36 37 37 37 36 36 36 35 35 34 34 34 34 34 34 34 34 33 33 33 33 33 32 32 32 32 32 32 32 32 32 32 32 32 31 31 31 30 30 30 30 30 29 29 27 26 26 26 26 26 27 27 28 28
30 32 34 34 32 29 26 25 25 24 25 25 26 25 25 26 27 28 29 30 31 32 32 33 34 34 34 34 34 34 34 34 34 34 35 35 35 35 35 34 34 33 33 33 33 33 33 33 32 32 32 32 32 31 31 31 31 31 30 31 31 31 31 31 31 31 30 29 29 28 27 26 26 26 25 25 24 23 23 23 24 24 24 25 25 26 26
32 34 34 31 28 26 25 24 24 23 22 22 22 22 22 23 23 24 25 26 28 28 29 29 30 31 32 32 32 32 32 32 32 32 32 33 33 33 33 33 33 32 32 32 32 32 32 31 31 31 31 31 31 30 30 30 30 30 30 30 30 30 30 29 28 27 27 26 25 23 22 21 21 21 21 21 20 20 20 21 21 21 22 23 23 23 24
34 34 32 28 25 24 23 22 21 21 20 19 18 18 18 19 20 21 21 22 24 25 25 25 26 27 28 29 29 30 30 30 30 30 30 31 31 31 31 31 31 31 31 31 31 31 31 30 31 31 30 30 30 30 30 30 29 29 29 29 29 28 27 26 25 24 23 21 20 19 18 17 17 17 17 18 18 18 18 18 19 19 20 21 21 21 22
34 33 29 25 23 23 21 20 19 18 18 17 16 16 16 16 17 17 19 20 21 22 22 22 22 23 24 25 26 27 27 28 28 29 29 29 29 29 30 30 30 30 30 30 30 30 30 30 30 30 30 30 29 29 29 29 29 28 28 27 26 24 23 22 21 20 19 17 16 16 15 15 15 15 16 16 16 17 17 18 19 19 20 21 21 21 21
34 31 27 24 23 21 19 17 16 16 16 16 16 16 16 16 16 16 17 19 20 21 21 21 21 21 22 23 24 24 25 26 26 27 27 28 28 28 28 28 29 29 29 29 29 29 29 29 30 30 30 29 28 28 28 27 27 26 25 24 22 21 20 18 18 17 16 15 15 15 14 14 15 15 16 16 17 18 18 19 20 20 21 21 21 21 21
33 30 27 25 23 20 17 16 15 14 14 15 16 17 18 17 16 16 16 17 18 19 20 20 20 20 20 21 22 23 24 24 25 26 26 27 27 27 27 27 28 28 28 28 28 28 28 29 29 29 28 27 27 27 26 25 24 23 21 20 19 18 17 16 15 15 15 15 15 15 15 16 16 17 17 18 18 19 19 19 20 20 20 20 21 20 20
31 28 26 24 23 19 16 15 14 14 13 14 15 17 18 18 17 17 17 18 18 18 18 18 19 19 19 19 20 21 22 22 23 24 25 25 26 26 26 26 26 26 26 26 26 27 27 27 27 27 26 26 26 25 25 23 22 20 19 18 18 17 15 15 14 14 14 15 15 15 16 16 17 17 17 18 18 18 18 18 18 18 18 19 19 19 19
30 27 24 23 22 19 16 15 14 13 13 13 14 15 17 17 17 17 17 17 17 17 17 16 17 17 18 18 18 19 19 20 20 21 21 22 23 23 23 23 23 23 23 24 24 25 25 25 25 24 24 24 24 24 23 22 20 19 19 18 17 16 15 15 15 14 14 15 15 16 16 17 17 17 16 16 16 16 16 16 17 17 18 18 19 19 19
29 26 24 22 21 18 16 14 13 13 13 14 14 15 16 17 17 17 17 17 17 17 16 15 15 15 16 17 17 17 17 18 18 19 19 19 20 21 21 21 21 21 22 22 22 23 23 23 22 22 22 23 23 24 23 21 19 19 19 18 18 17 16 16 16 15 15 15 15 16 16 16 16 15 15 15 15 16 17 17 18 19 19 20 20 20 20
29 26 24 23 21 19 16 14 13 12 12 12 14 15 16 17 17 17 16 16 16 15 15 14 13 14 15 16 16 17 17 18 18 18 18 18 19 19 20 20 20 21 21 21 21 21 21 21 21 21 22 23 23 23 22 21 20 20 19 19 18 18 17 17 16 16 16 16 16 16 16 16 16 15 15 16 16 17 18 19 20 21 21 21 21 21 21
29 26 23 22 22 20 17 15 13 12 12 12 12 14 15 16 16 16 15 14 14 14 14 13 13 13 14 15 16 17 17 18 18 19 19 19 18 18 19 19 20 20 20 20 20 20 20 20 20 21 22 22 23 23 22 20 20 20 20 19 19 18 17 17 16 16 15 15 16 16 16 16 16 17 17 18 18 19 20 21 22 23 23 22 22 21 21
28 26 24 22 21 20 18 15 14 13 12 12 12 13 13 14 14 15 15 15 15 15 14 13 13 13 14 15 16 16 17 17 18 19 19 19 19 18 18 19 19 20 19 19 19 19 19 20 20 20 21 22 24 23 22 21 20 20 20 19 19 18 17 16 16 16 15 16 16 16 17 17 18 18 19 20 20 21 22 23 24 24 24 23 23 22 21
27 26 24 22 21 20 18 16 14 13 12 12 13 13 13 13 13 14 15 15 15 15 15 15 15 16 16 17 17 17 17 17 17 18 18 18 18 18 19 19 19 19 19 19 19 19 19 19 19 20 21 22 24 24 23 21 21 20 20 19 19 18 17 17 17 16 16 17 17 18 18 19 19 20 20 21 22 23 23 24 24 24 24 23 22 21 20
27 26 24 23 21 20 18 17 15 14 13 13 13 13 13 13 13 13 14 14 15 15 16 17 18 19 19 19 19 18 18 18 17 17 17 17 17 17 18 18 18 19 19 19 19 19 19 19 19 20 21 22 24 24 23 22 21 20 20 19 19 19 19 19 18 18 18 19 19 20 20 20 20 20 21 22 23 23 23 23 23 23 22 22 21 21 20
27 25 24 23 22 20 19 17 16 15 14 14 13 13 13 13 13 13 13 14 15 15 16 17 18 19 19 19 18 18 18 18 18 17 17 18 18 17 17 17 17 18 18 19 19 19 19 18 18 19 20 22 23 24 23 22 22 21 20 20 20 20 20 20 19 19 20 20 20 20 20 20 20 20 21 22 23 23 22 22 22 22 22 22 22 22 21
27 26 24 23 22 21 19 18 17 16 15 15 15 15 14 13 13 13 13 14 15 15 14 15 16 17 17 17 17 17 18 18 18 17 17 17 18 18 18 17 17 17 18 18 18 19 19 18 18 18 19 21 23 24 23 23 22 21 21 21 21 21 21 20 20 20 21 21 20 20 19 19 19 20 22 22 22 22 21 21 22 22 23 23 22 21 19
27 26 24 23 22 21 20 19 18 16 15 15 16 16 15 15 14 14 14 14 14 14 14 15 15 16 17 17 17 17 17 17 18 17 16 16 16 17 18 17 17 17 17 17 17 18 18 18 18 18 18 19 21 22 23 23 22 22 21 21 21 21 21 21 20 20 20 20 20 19 19 19 20 20 21 21 21 20 21 21 22 22 22 21 20 18 17
27 27 25 23 22 22 21 20 18 16 15 15 15 15 15 14 14 13 14 14 14 14 14 14 14 15 15 15 15 15 15 15 16 16 16 16 16 16 16 17 17 17 17 16 16 16 17 17 17 17 18 19 20 21 22 22 22 22 22 22 22 22 21 21 21 20 20 20 19 19 18 19 20 20 20 20 20 20 20 21 21 20 19 18 18 17 16
27 27 26 24 23 22 21 21 19 17 15 14 13 13 13 13 12 12 12 12 12 12 11 11 11 11 11 11 11 11 11 12 14 15 15 14 14 15 15 15 16 16 16 16 15 14 15 16 16 17 17 18 19 20 20 21 22 22 22 22 22 21 21 21 20 20 20 20 19 18 19 20 20 20 20 20 19 19 19 19 19 18 17 16 16 16 15
27 27 27 26 24 22 21 21 20 18 16 14 12 11 11 11 10 10 9 9 9 9 9 9 8 8 8 7 7 7 8 9 11 12 12 12 12 13 14 14 14 15 16 16 15 15 15 15 15 16 16 17 17 18 19 20 21 21 21 22 22 21 21 20 20 20 20 19 19 19 19 20 21 21 20 20 19 19 19 18 18 17 16 15 15 15 14
27 27 27 27 25 23 21 21 20 19 17 15 13 12 11 10 10 9 9 9 8 8 8 8 8 7 6 5 5 5 5 6 7 8 8 8 9 11 12 12 12 13 14 15 16 16 16 16 16 16 16 16 17 18 19 20 21 22 23 23 22 22 21 21 21 20 20 20 20 20 20 20 21 21 21 20 19 19 18 18 17 16 16 15 14 14 14
Wind_Direction
242 232 227 230 233 234 235 236 236 236 237 238 240 242 245 246 245 246 247 249 249 248 248 251 252 251 252 254 258 261 263 266 268 266 264 261 237 229 237 230 222 226 228 234 241 238 231 230 228 219 210 207 209 211 212 214 215 215 219 229 238 239 236 234 236 238 240 245 246 246 247 249 251 256 258 254 251 247 243 242 246 251 255 257 255 251 247
244 233 227 230 234 236 237 238 239 239 240 240 241 244 247 249 249 249 249 250 250 248 247 250 252 251 251 254 258 262 264 265 263 256 255 256 247 246 255 252 241 235 239 250 251 246 244 236 224 214 209 216 229 230 222 222 226 229 232 236 240 240 238 236 236 238 242 246 250 254 257 253 248 251 255 256 257 256 248 240 241 248 253 255 255 251 246
241 237 233 234 237 239 240 240 241 242 242 242 242 244 247 251 253 253 252 251 251 250 250 251 253 253 255 259 262 264 265 263 257 250 251 256 257 258 256 251 250 249 252 257 254 248 244 233 225 223 223 230 240 236 226 227 229 229 230 232 233 235 235 235 236 239 243 244 246 250 250 246 243 245 248 251 256 258 252 240 238 245 252 254 251 248 246
241 240 238 237 238 240 241 241 240 240 242 242 242 243 246 250 254 256 256 255 253 252 253 254 255 256 258 262 266 268 267 265 262 260 262 264 264 262 254 248 250 252 251 253 253 250 243 232 226 225 225 228 231 227 223 225 225 225 227 228 228 228 228 229 233 238 242 244 242 240 238 239 241 242 245 247 250 250 243 234 235 245 254 254 245 240 243
244 242 241 241 240 241 242 243 240 239 240 241 242 242 244 247 252 256 258 258 257 256 258 258 258 258 260 262 265 266 264 264 263 262 262 263 261 260 254 250 251 250 247 248 249 243 234 226 220 219 221 225 228 226 225 227 228 228 229 231 231 231 231 234 238 240 241 242 242 238 236 239 242 243 245 247 246 241 234 231 237 248 253 250 241 235 238
244 243 243 243 243 245 247 248 244 240 239 240 243 244 243 245 249 252 255 257 258 259 261 261 260 261 261 262 262 262 262 261 259 259 259 259 259 260 257 252 248 243 237 235 232 225 219 217 218 222 227 230 231 232 233 234 234 232 232 234 237 239 242 244 244 243 242 241 242 242 240 241 246 250 253 251 245 240 237 239 249 256 254 248 242 239 240
244 249 251 250 251 253 255 253 248 242 240 241 244 246 246 246 247 249 252 254 256 258 259 259 260 261 262 263 261 259 259 259 259 260 259 258 260 263 259 247 235 229 226 224 222 217 215 219 227 233 236 236 236 237 238 238 234 231 231 234 237 240 243 243 241 241 242 243 245 247 248 249 253 258 259 253 246 245 248 254 260 261 256 250 248 247 246
248 255 260 263 267 273 275 267 255 247 246 245 246 248 249 247 246 246 249 251 254 257 257 257 257 258 260 262 260 258 258 259 257 254 251 254 260 262 255 240 228 227 230 227 222 221 225 230 234 238 239 240 239 238 238 238 234 230 228 231 234 235 237 238 239 240 242 244 246 249 251 254 256 258 257 254 252 254 258 259 259 258 255 253 253 252 250
253 259 263 265 267 272 281 285 272 256 250 250 250 251 251 249 246 245 246 249 252 255 256 256 256 258 260 259 258 258 259 255 248 243 248 256 259 255 247 237 230 230 231 226 222 226 230 230 231 237 239 238 237 239 239 238 236 233 230 228 230 232 234 236 238 241 242 245 246 248 250 252 253 253 252 252 254 257 258 257 256 254 254 255 255 253 250
255 261 265 267 268 270 274 277 274 261 251 247 244 243 243 244 242 242 245 248 247 246 248 252 253 254 257 257 254 254 254 249 245 248 257 263 259 249 240 232 226 223 220 217 218 223 226 226 230 237 238 233 231 234 238 237 235 234 234 233 233 234 236 237 238 241 243 245 247 248 250 252 253 252 252 253 255 256 256 256 256 256 255 255 256 255 254
255 259 264 267 268 270 271 269 265 259 250 240 233 231 230 232 234 236 239 244 243 239 238 243 247 247 251 255 256 253 252 251 250 252 255 255 251 244 236 229 226 221 215 214 218 222 225 229 233 234 233 229 228 230 234 236 233 230 234 240 242 240 239 239 239 241 243 245 248 250 251 253 253 253 253 254 255 258 260 261 262 262 260 258 257 257 256
249 253 259 262 263 264 265 262 257 255 248 231 221 224 223 221 226 230 231 235 239 237 235 239 243 244 248 253 254 249 248 248 246 242 237 233 229 225 223 223 222 220 218 220 224 226 228 230 231 230 228 228 230 233 236 237 235 229 227 233 240 240 238 238 238 241 245 248 250 251 252 253 254 254 254 255 256 258 261 263 264 263 262 261 259 258 257
243 246 250 253 255 256 257 255 251 249 244 230 218 217 214 214 221 227 228 230 233 234 234 236 239 242 243 242 235 228 230 236 233 225 218 215 210 204 208 216 218 219 223 226 228 228 228 228 228 228 229 230 234 238 240 241 240 236 234 238 244 244 241 239 238 240 245 248 250 252 252 252 254 256 256 257 258 259 259 260 261 261 262 262 262 261 260
240 243 245 247 249 250 249 249 248 244 240 235 229 222 213 209 213 220 225 228 229 228 229 232 234 235 232 226 219 216 219 223 224 218 213 211 208 203 206 212 214 217 221 225 227 228 229 230 231 231 232 234 237 241 244 245 245 243 243 247 251 251 249 248 245 244 246 249 252 254 254 255 256 257 257 258 260 261 261 261 262 263 264 265 265 265 265
239 242 242 241 244 247 245 243 243 241 237 235 235 234 230 223 217 217 223 230 232 230 229 230 231 230 228 225 226 228 226 226 227 225 220 219 222 228 233 237 236 231 228 226 227 229 230 231 233 233 234 238 242 245 248 249 249 249 250 252 254 254 254 253 252 251 252 253 254 255 256 257 259 259 259 260 261 263 265 265 266 267 268 268 268 268 269
240 242 241 238 240 245 247 243 241 241 239 236 235 237 238 236 230 222 220 226 231 231 230 231 232 232 232 232 234 236 235 234 235 236 234 233 237 243 249 253 254 252 249 244 240 239 239 239 240 241 243 245 248 250 251 250 250 251 252 252 254 254 255 255 255 255 255 256 256 256 256 257 259 260 261 261 262 263 265 266 267 268 268 268 268 269 269
245 246 246 246 245 247 248 247 244 243 243 242 239 238 238 239 235 227 220 221 226 227 228 230 231 230 230 233 237 239 240 240 240 242 244 245 245 247 250 253 254 253 254 253 252 250 249 247 247 248 249 249 250 250 251 251 252 252 252 252 252 254 255 256 256 256 256 256 256 256 257 258 259 261 262 263 263 264 265 267 268 268 269 269 268 268 268
251 251 250 250 249 248 247 247 246 245 244 243 243 241 238 237 236 231 226 226 227 227 226 226 226 223 223 228 236 240 243 244 243 243 244 245 246 248 250 252 252 250 250 252 253 253 252 252 251 250 250 250 251 251 251 251 251 252 252 253 253 254 255 256 256 257 257 258 258 259 260 261 262 263 264 265 266 266 267 267 268 268 269 269 269 269 268
253 254 253 251 251 250 248 247 246 245 244 243 243 243 241 239 237 234 232 231 231 231 229 227 226 224 223 225 231 237 240 242 243 243 243 244 247 250 253 255 257 257 256 256 256 255 255 255 254 252 251 251 251 251 251 250 250 251 252 252 253 254 255 256 257 258 258 259 260 261 261 262 263 263 264 264 265 265 266 267 268 268 269 269 269 270 270
256 256 256 256 255 254 252 250 249 249 249 248 246 246 245 244 242 240 238 236 234 233 233 233 232 232 231 230 232 235 238 239 241 242 244 246 249 252 254 256 257 258 260 261 262 261 260 259 259 258 257 257 257 257 256 255 254 254 254 255 255 256 256 257 258 259 260 261 261 262 262 263 263 263 264 264 265 266 266 267 268 268 269 269 269 270 270
260 260 260 260 260 259 257 256 254 253 253 253 252 252 251 250 248 247 245 243 240 237 236 235 234 235 235 236 237 238 239 241 243 244 246 249 253 256 257 259 259 259 260 261 262 262 262 262 262 262 262 262 262 262 262 261 261 261 261 260 261 261 261 262 262 262 263 263 263 264 264 265 265 265 266 266 267 268 268 268 268 269 269 269 270 270 270
271 271 269 267 266 265 263 261 259 257 256 256 256 255 254 253 251 249 248 247 246 244 242 240 239 238 237 237 239 240 241 243 244 246 247 249 252 255 257 260 262 263 263 263 263 262 262 262 263 263 263 264 264 264 264 265 265 265 266 266 266 266 266 266 266 266 266 266 266 266 267 267 268 268 268 269 269 270 270 270 270 271 271 271 272 272 272
286 284 282 278 275 272 269 267 265 263 261 259 258 257 256 255 253 251 250 248 248 247 247 246 245 244 243 243 243 244 245 245 246 248 249 252 254 256 258 260 261 262 264 265 265 265 265 265 265 265 266 266 267 267 266 267 267 267 268 268 268 269 269 269 269 269 269 269 269 270 270 270 271 272 273 273 272 272 273 274 275 275 275 275 276 276 276
305 303 299 296 292 288 284 280 277 274 271 268 265 262 260 258 257 255 253 251 249 248 248 248 248 248 247 247 247 247 249 250 251 252 253 254 256 258 259 259 259 260 260 262 263 264 265 265 266 266 267 267 267 267 268 269 270 270 271 271 271 271 271 271 271 271 272 272 272 273 273 273 274 275 276 277 277 277 277 277 278 278 279 279 279 279 278
316 314 310 306 303 299 295 291 287 284 281 278 274 270 266 263 261 259 257 256 254 252 251 250 250 250 249 248 247 247 247 249 251 253 255 256 258 259 259 260 259 259 260 261 262 263 264 264 265 265 266 267 267 268 269 270 270 271 271 272 272 272 273 273 273 273 274 274 274 274 275 276 276 277 277 278 279 279 279 279 279 279 279 279 279 279 279
312 309 306 303 300 297 295 292 289 286 283 281 277 274 271 268 265 262 260 258 257 256 254 253 252 252 252 252 251 249 249 249 250 252 255 257 259 261 262 262 263 263 264 265 266 267 267 267 267 267 267 268 268 269 269 269 270 270 270 271 271 272 272 272 273 273 274 274 275 276 276 277 278 278 278 278 278 278 279 279 279 279 279 279 279 280 280
309 306 303 300 297 295 292 290 287 285 282 278 275 273 272 269 267 264 262 260 259 257 256 255 254 253 253 253 253 253 253 253 253 254 256 258 260 261 263 264 265 266 267 268 268 269 269 269 268 268 268 268 268 268 268 268 269 269 270 271 271 272 272 272 272 273 274 274 275 276 277 277 277 277 277 277 277 277 278 279 280 280 280 280 280 280 281
311 309 307 304 302 299 296 293 290 286 281 276 270 267 266 265 265 264 263 262 260 259 258 257 256 255 255 254 254 254 254 255 255 255 256 257 258 260 261 262 264 265 266 267 267 267 267 267 267 267 267 267 267 267 267 268 269 269 270 271 272 272 272 273 273 274 275 275 276 277 277 277 277 277 277 277 278 279 279 280 280 281 281 282 281 281 280
312 311 309 308 306 303 300 297 293 289 283 276 268 262 259 259 259 260 260 260 260 260 259 258 257 257 256 256 256 256 256 255 255 255 256 256 257 258 259 260 262 263 264 265 265 265 266 266 266 267 267 267 267 267 268 269 269 270 271 272 272 273 273 274 275 275 276 277 277 278 278 278 278 278 279 279 279 280 280 280 280 281 281 282 282 281 281
312 311 309 307 305 302 299 295 293 290 287 281 272 263 258 256 255 255 255 256 257 257 258 258 258 258 258 258 257 257 257 256 256 256 256 257 257 258 259 259 260 262 263 264 264 265 265 266 267 267 268 268 268 269 269 270 271 271 272 272 272 272 273 274 275 276 277 278 279 279 279 279 279 279 279 280 280 280 280 281 281 281 281 281 281 282 282
315 313 310 308 304 301 296 293 291 290 289 286 280 270 262 257 256 254 253 252 252 253 254 255 256 257 258 258 259 259 259 258 258 258 258 258 258 258 259 259 260 260 261 262 263 263 264 266 266 267 267 267 268 269 269 270 270 271 271 271 272 272 273 275 276 276 277 278 279 280 280 279 279 279 279 280 280 281 281 280 280 280 280 281 282 283 284
317 314 311 308 304 300 295 293 292 291 289 285 280 275 267 261 257 256 254 253 251 251 251 252 253 255 255 256 257 258 258 258 258 258 258 258 258 258 259 259 260 261 261 261 262 262 263 264 264 264 265 265 266 267 267 268 269 270 270 271 272 273 273 274 275 276 277 278 278 279 278 278 278 278 278 279 279 279 279 278 279 280 281 283 285 286 288
319 316 313 310 305 301 298 296 294 294 291 285 278 274 271 268 263 260 257 255 253 252 251 251 252 252 253 254 255 256 257 257 257 257 257 256 256 257 257 258 258 259 260 260 261 262 262 262 262 263 263 264 264 265 266 267 268 269 269 270 270 271 271 272 272 273 274 276 276 276 275 274 274 275 276 276 278 278 279 280 282 284 285 286 288 289 290
320 319 317 313 308 304 301 299 297 298 298 294 285 277 273 272 270 267 264 260 256 254 252 251 251 251 252 252 252 253 254 254 255 255 255 255 255 255 256 256 257 257 258 259 260 260 261 261 261 262 262 262 263 264 264 266 267 267 267 267 267 267 267 268 268 269 270 271 270 269 267 267 270 274 277 279 281 283 284 286 288 288 289 289 290 291 293
323 322 320 317 313 310 305 301 301 302 304 302 293 281 274 274 273 271 269 266 263 260 257 255 253 252 252 252 252 252 252 252 253 253 254 254 254 255 255 256 256 256 257 258 258 259 259 260 260 261 261 261 262 262 263 264 265 264 264 263 262 262 262 262 262 263 263 263 263 262 263 267 273 278 281 282 284 287 289 290 291 291 291 292 293 294 296
327 326 324 321 319 315 309 302 300 301 302 299 289 277 272 272 272 270 268 266 264 263 262 260 257 254 251 250 250 250 250 251 252 253 253 253 253 254 254 255 255 256 257 257 258 258 258 259 259 260 261 261 261 261 262 262 261 260 258 257 256 256 256 255 255 256 258 260 262 265 269 274 278 281 283 284 286 290 291 292 293 293 292 293 295 296 298
331 330 328 326 323 318 310 301 296 296 296 292 282 274 271 272 272 272 273 272 268 266 264 262 259 256 253 250 249 249 249 250 251 252 253 253 253 254 254 254 255 256 256 257 258 258 258 259 259 260 260 260 260 260 259 258 256 253 250 249 249 250 250 250 251 253 257 262 266 270 275 279 282 284 286 288 289 291 292 292 292 292 292 293 295 297 299
334 333 331 329 326 320 309 300 296 296 295 291 282 276 275 277 279 281 282 282 278 273 269 266 263 259 256 253 251 250 249 249 249 250 251 252 253 254 254 254 255 255 256 256 257 257 257 257 258 259 259 259 259 258 256 253 247 243 241 242 244 245 247 249 252 255 260 265 268 271 275 279 281 283 285 287 289 291 292 292 292 292 293 295 297 299 301
336 335 334 333 329 321 309 300 295 294 293 288 281 276 275 278 282 287 290 290 286 280 275 270 267 264 261 258 255 253 251 250 250 250 251 252 253 254 254 254 255 254 254 254 254 254 254 255 256 257 258 258 257 255 252 245 237 234 236 239 242 245 248 251 255 258 262 265 268 271 274 277 279 281 283 287 290 293 295 297 297 297 299 300 302 304 305
339 338 337 336 333 325 312 300 291 289 287 281 274 271 273 277 283 290 294 295 290 284 279 274 269 266 264 261 259 257 256 254 253 253 253 253 254 256 256 257 256 255 254 254 253 253 253 254 254 255 255 254 252 250 245 238 231 231 235 239 243 248 252 255 257 259 262 263 267 271 273 274 276 279 284 289 293 296 299 302 303 303 304 305 305 306 307
340 339 338 338 336 331 322 309 295 287 286 283 276 273 274 278 283 288 293 294 292 288 285 281 275 271 268 267 265 264 262 261 259 258 257 256 256 257 258 258 258 257 257 256 255 255 255 256 255 254 251 248 246 245 241 235 231 233 237 242 246 250 254 256 257 258 261 265 268 272 274 275 277 282 288 292 296 299 302 304 305 306 306 306 306 306 307
340 340 339 338 337 335 331 323 309 295 290 288 286 282 280 281 282 283 285 288 292 292 290 287 282 276 272 270 268 266 265 264 264 263 261 259 259 258 258 258 258 258 258 257 256 255 255 254 252 251 248 244 242 241 238 235 235 238 241 244 248 251 253 254 256 258 262 266 270 273 277 280 284 289 293 296 299 301 303 305 305 305 305 305 305 305 305
340 339 339 338 337 336 333 328 319 307 298 293 290 288 286 284 282 279 277 279 284 287 287 286 283 280 277 274 271 268 266 264 263 263 262 261 261 260 259 258 258 257 257 256 256 255 253 251 249 248 246 242 239 237 236 236 239 241 243 244 247 249 251 253 256 259 263 268 272 276 280 284 288 291 294 297 299 301 302 303 303 303 303 303 303 302 302
339 338 338 338 338 336 334 329 322 314 306 299 294 291 289 287 284 281 277 275 275 275 274 276 279 281 281 280 277 274 271 268 266 264 262 260 259 258 257 257 256 256 256 256 255 254 252 249 246 244 242 239 236 234 235 237 239 241 242 243 246 249 252 254 257 260 265 269 274 277 281 285 287 290 294 297 300 302 302 302 302 302 303 303 302 301 300
340 338 337 336 336 335 333 329 323 319 313 307 301 296 293 290 287 283 279 274 270 267 266 268 272 275 277 277 278 277 276 274 272 269 267 264 261 258 255 254 255 255 255 255 254 253 251 247 244 242 239 237 235 234 235 237 238 240 242 245 248 252 255 256 258 261 266 270 274 277 280 284 287 291 295 300 302 303 303 303 303 304 305 306 306 306 304
340 339 337 334 333 333 331 328 323 319 315 310 305 300 297 294 291 287 283 279 276 274 272 271 272 274 275 275 276 276 276 276 275 274 271 269 267 264 260 256 254 254 254 254 253 252 249 247 244 241 238 236 235 235 236 239 240 241 244 248 252 255 255 256 258 262 266 270 273 276 279 284 289 294 299 302 304 305 304 304 305 307 308 308 309 309 308
338 338 336 333 331 330 329 327 323 318 312 306 301 297 296 295 293 289 285 282 280 280 277 276 276 278 279 278 277 276 275 275 274 272 270 268 267 267 265 260 255 253 253 253 252 251 249 246 244 242 239 237 236 235 235 237 239 241 244 248 252 253 253 253 256 260 264 268 271 274 278 285 291 296 301 304 305 306 306 307 308 310 311 311 311 310 309
336 336 335 333 330 328 327 327 324 320 314 307 301 297 295 293 291 290 290 287 284 282 280 279 279 281 281 281 280 278 276 275 273 272 269 267 264 263 262 261 257 254 252 252 251 250 248 246 245 243 241 239 237 236 235 236 238 240 244 247 249 248 248 249 252 257 261 266 269 273 278 285 291 296 300 304 306 308 310 312 313 314 314 313 313 313 312
334 334 334 332 328 326 325 325 323 321 316 310 305 301 298 295 292 293 296 295 292 288 285 283 283 284 284 284 284 282 279 277 275 273 270 268 264 261 259 258 257 254 252 250 249 247 245 244 243 242 240 239 238 238 239 240 240 241 243 243 243 243 244 247 250 255 259 264 267 272 278 284 289 293 298 303 307 310 313 317 318 318 317 316 316 316 316
331 332 332 331 328 325 323 322 322 320 318 314 310 306 301 297 295 296 300 301 298 294 289 286 286 287 289 289 287 285 282 278 275 273 272 270 269 266 262 259 258 256 253 248 244 243 243 242 241 241 241 241 241 241 241 240 239 238 238 238 238 240 244 247 252 256 261 264 267 272 277 283 287 291 296 301 306 311 315 319 321 321 321 320 320 319 319
328 329 330 329 327 323 320 319 319 319 317 315 312 307 300 294 291 292 296 299 298 293 291 290 291 291 293 294 294 294 289 284 282 283 283 280 276 272 268 264 261 260 256 250 242 238 238 240 241 242 242 243 243 242 240 237 235 234 234 236 238 241 245 249 253 257 261 264 269 273 278 282 286 290 294 299 304 310 314 318 321 323 324 323 321 321 320
325 326 327 327 325 321 317 315 314 315 314 312 309 304 297 288 280 279 283 288 287 283 283 284 284 284 287 290 294 298 301 299 300 303 302 295 285 279 274 269 264 262 261 257 250 243 239 238 239 241 243 244 244 244 242 239 236 235 236 237 240 242 245 248 252 256 260 264 268 272 276 281 285 289 293 297 302 306 310 314 318 322 323 323 322 321 321
Height
5652 5654 5657 5660 5662 5664 5665 5667 5669 5670 5671 5672 5673 5675 5675 5676 5678 5679 5680 5682 5683 5685 5686 5688 5689 5690 5691 5693 5693 5694 5694 5695 5696 5697 5697 5698 5699 5700 5701 5703 5704 5705 5706 5708 5709 5710 5712 5713 5714 5716 5718 5719 5720 5722 5724 5725 5726 5728 5730 5731 5732 5733 5735 5736 5737 5738 5739 5740 5741 5741 5742 5743 5744 5745 5745 5746 5747 5747 5748 5749 5751 5752 5752 5752 5753 5754 5754
5650 5651 5654 5657 5658 5660 5662 5664 5666 5667 5668 5669 5671 5672 5673 5673 5674 5676 5677 5679 5681 5682 5684 5686 5687 5688 5689 5691 5692 5692 5693 5694 5694 5695 5696 5697 5698 5699 5700 5701 5703 5704 5705 5706 5707 5709 5710 5711 5712 5714 5716 5718 5719 5721 5722 5723 5724 5726 5727 5728 5729 5730 5732 5733 5734 5735 5736 5737 5738 5738 5739 5740 5741 5742 5742 5743 5744 5745 5746 5747 5748 5749 5750 5750 5751 5751 5752
5648 5650 5652 5654 5655 5657 5659 5660 5662 5664 5665 5666 5668 5669 5670 5670 5671 5673 5675 5676 5678 5680 5682 5683 5684 5686 5687 5689 5690 5691 5692 5692 5693 5694 5695 5696 5697 5697 5698 5699 5700 5701 5703 5704 5705 5707 5708 5709 5711 5712 5714 5716 5717 5718 5720 5721 5723 5724 5725 5726 5727 5728 5729 5730 5731 5732 5733 5734 5735 5735 5736 5737 5738 5739 5739 5740 5741 5742 5743 5745 5746 5747 5747 5747 5748 5749 5750
5646 5647 5649 5650 5652 5653 5655 5656 5658 5660 5661 5663 5665 5666 5667 5668 5669 5670 5671 5673 5675 5677 5679 5680 5682 5683 5685 5686 5687 5689 5690 5690 5691 5692 5693 5694 5695 5695 5696 5696 5697 5698 5700 5701 5702 5703 5705 5707 5708 5710 5711 5713 5714 5716 5718 5719 5721 5722 5723 5724 5725 5725 5726 5727 5728 5729 5730 5731 5731 5732 5733 5734 5735 5736 5737 5738 5739 5739 5741 5742 5743 5744 5744 5744 5745 5746 5746
5643 5645 5646 5647 5649 5650 5651 5652 5653 5655 5657 5659 5661 5663 5664 5665 5666 5667 5668 5669 5671 5674 5676 5678 5679 5681 5682 5683 5685 5686 5687 5688 5689 5690 5691 5692 5693 5693 5694 5694 5694 5695 5697 5698 5699 5700 5702 5703 5705 5707 5709 5710 5712 5713 5715 5716 5718 5719 5720 5721 5722 5723 5724 5725 5726 5726 5727 5727 5728 5729 5730 5731 5732 5733 5735 5735 5736 5737 5737 5739 5740 5741 5741 5741 5742 5742 5743
5641 5642 5643 5644 5645 5646 5647 5648 5650 5651 5653 5655 5657 5659 5660 5662 5663 5665 5665 5666 5668 5670 5672 5675 5676 5677 5679 5680 5682 5683 5684 5685 5687 5688 5688 5689 5690 5691 5692 5692 5692 5693 5694 5696 5697 5698 5699 5700 5702 5704 5706 5708 5709 5711 5712 5714 5715 5716 5717 5718 5719 5720 5721 5722 5723 5723 5724 5724 5725 5726 5727 5728 5729 5731 5732 5733 5733 5734 5734 5736 5737 5738 5738 5738 5739 5739 5740
5638 5639 5640 5641 5642 5643 5644 5645 5646 5647 5649 5651 5653 5654 5656 5659 5660 5661 5662 5663 5664 5667 5669 5671 5672 5674 5675 5677 5678 5680 5681 5682 5683 5684 5685 5686 5687 5687 5688 5689 5690 5690 5692 5694 5695 5695 5697 5699 5700 5701 5703 5704 5706 5707 5709 5710 5711 5713 5714 5715 5716 5717 5718 5719 5720 5720 5721 5722 5722 5723 5724 5725 5727 5728 5729 5730 5731 5731 5732 5733 5733 5734 5735 5735 5736 5736 5736
5636 5637 5638 5639 5640 5641 5642 5642 5643 5644 5646 5648 5649 5651 5652 5654 5656 5658 5659 5660 5662 5663 5665 5667 5668 5670 5672 5673 5675 5676 5677 5678 5679 5681 5682 5683 5683 5684 5685 5685 5686 5688 5689 5691 5692 5693 5695 5696 5697 5698 5700 5701 5702 5704 5706 5707 5708 5709 5710 5711 5713 5714 5715 5715 5716 5717 5718 5718 5719 5720 5721 5722 5723 5725 5726 5727 5727 5728 5728 5729 5729 5730 5731 5732 5732 5733 5733
5633 5634 5635 5637 5638 5639 5640 5641 5641 5641 5642 5644 5645 5647 5648 5650 5652 5654 5656 5657 5659 5660 5662 5663 5665 5666 5668 5670 5671 5672 5673 5674 5676 5677 5679 5679 5680 5680 5680 5681 5683 5685 5686 5688 5689 5690 5692 5693 5694 5696 5697 5698 5699 5700 5702 5703 5705 5706 5707 5708 5709 5710 5711 5712 5713 5714 5715 5716 5716 5717 5717 5719 5720 5721 5722 5723 5723 5724 5724 5725 5726 5727 5727 5728 5728 5729 5729
5632 5633 5633 5635 5636 5637 5638 5639 5640 5640 5640 5641 5642 5643 5645 5646 5648 5650 5651 5652 5654 5657 5659 5660 5661 5662 5664 5665 5667 5669 5670 5671 5672 5674 5675 5676 5676 5677 5677 5677 5678 5681 5682 5684 5686 5687 5688 5690 5691 5692 5694 5695 5696 5698 5699 5700 5702 5703 5704 5705 5706 5707 5708 5709 5710 5711 5712 5712 5713 5713 5714 5715 5716 5717 5718 5719 5719 5720 5720 5721 5722 5723 5723 5723 5723 5724 5724
5630 5631 5632 5633 5634 5635 5636 5637 5638 5639 5639 5639 5640 5641 5642 5643 5644 5645 5647 5648 5649 5652 5654 5655 5656 5658 5660 5661 5663 5665 5666 5667 5668 5670 5673 5673 5672 5672 5673 5673 5674 5676 5679 5680 5682 5683 5684 5686 5688 5689 5690 5691 5693 5695 5696 5696 5698 5700 5701 5702 5702 5703 5704 5705 5706 5707 5708 5708 5709 5710 5710 5711 5712 5713 5714 5714 5715 5715 5716 5716 5717 5717 5718 5719 5719 5719 5719
5628 5629 5630 5630 5631 5632 5633 5635 5636 5637 5638 5638 5638 5639 5640 5641 5641 5642 5643 5644 5645 5647 5650 5652 5653 5655 5656 5658 5660 5661 5662 5663 5663 5665 5668 5669 5667 5667 5668 5668 5669 5672 5674 5676 5677 5678 5680 5682 5684 5686 5687 5688 5690 5691 5692 5693 5695 5696 5697 5697 5698 5699 5700 5701 5702 5703 5704 5705 5705 5706 5706 5707 5707 5708 5709 5709 5710 5710 5711 5711 5711 5712 5712 5713 5713 5714 5713
5625 5627 5628 5628 5629 5630 5631 5632 5633 5634 5636 5636 5636 5636 5637 5638 5639 5640 5640 5641 5642 5644 5646 5648 5650 5651 5653 5655 5657 5657 5658 5659 5659 5660 5662 5663 5663 5663 5663 5664 5666 5668 5670 5671 5673 5674 5676 5678 5680 5682 5683 5685 5687 5688 5689 5690 5692 5693 5693 5694 5695 5695 5696 5697 5698 5699 5699 5700 5701 5702 5702 5703 5703 5704 5704 5704 5705 5705 5706 5706 5706 5707 5707 5707 5708 5708 5708
5623 5624 5625 5626 5627 5627 5629 5630 5631 5632 5633 5634 5634 5634 5636 5636 5637 5638 5638 5639 5640 5642 5643 5645 5646 5648 5650 5652 5652 5652 5653 5655 5656 5657 5659 5659 5660 5661 5662 5663 5664 5665 5667 5668 5669 5671 5672 5674 5676 5678 5679 5681 5683 5684 5686 5687 5688 5689 5690 5691 5691 5692 5692 5693 5694 5694 5695 5696 5697 5697 5698 5698 5699 5699 5699 5699 5699 5700 5700 5701 5701 5701 5701 5702 5702 5702 5702
5621 5622 5623 5624 5625 5625 5626 5628 5629 5629 5630 5631 5631 5632 5634 5635 5636 5636 5637 5637 5639 5640 5641 5642 5643 5644 5646 5648 5648 5648 5649 5651 5653 5654 5655 5656 5657 5658 5660 5661 5663 5664 5665 5666 5667 5668 5670 5671 5673 5674 5676 5678 5679 5681 5682 5683 5684 5685 5685 5685 5686 5686 5687 5688 5688 5689 5690 5691 5692 5692 5692 5692 5692 5693 5693 5693 5693 5694 5694 5694 5694 5694 5694 5695 5695 5695 5695
5620 5620 5621 5622 5623 5624 5624 5626 5626 5627 5628 5628 5629 5630 5631 5632 5634 5635 5635 5635 5636 5637 5638 5639 5640 5641 5642 5643 5644 5644 5646 5648 5649 5650 5651 5652 5653 5654 5656 5657 5658 5660 5661 5663 5664 5665 5667 5668 5669 5671 5672 5674 5675 5676 5677 5678 5679 5679 5680 5680 5680 5681 5681 5682 5683 5684 5684 5685 5685 5686 5686 5686 5686 5686 5687 5687 5687 5687 5687 5687 5687 5687 5687 5687 5688 5688 5687
5618 5619 5619 5620 5621 5622 5622 5623 5624 5625 5625 5626 5627 5628 5629 5630 5631 5632 5633 5633 5633 5634 5635 5636 5637 5638 5639 5639 5640 5641 5642 5644 5645 5646 5647 5648 5650 5651 5652 5653 5654 5656 5657 5658 5659 5661 5662 5663 5665 5666 5667 5668 5669 5670 5671 5672 5673 5673 5674 5674 5675 5675 5676 5676 5677 5678 5678 5679 5679 5679 5680 5680 5680 5680 5680 5680 5681 5680 5680 5680 5680 5680 5680 5680 5680 5680 5680
5616 5617 5618 5618 5619 5619 5620 5621 5622 5622 5623 5624 5624 5625 5626 5627 5628 5629 5630 5630 5630 5631 5632 5633 5634 5635 5635 5636 5637 5638 5639 5640 5641 5642 5643 5644 5646 5647 5648 5649 5650 5651 5653 5654 5655 5656 5657 5658 5659 5660 5662 5663 5664 5665 5666 5666 5667 5667 5668 5668 5669 5669 5670 5670 5671 5671 5672 5672 5673 5673 5673 5674 5674 5674 5674 5674 5673 5673 5673 5673 5673 5673 5673 5672 5672 5672 5672
5614 5615 5615 5616 5616 5617 5618 5619 5619 5620 5620 5621 5622 5622 5623 5624 5625 5625 5626 5627 5627 5628 5629 5630 5631 5631 5632 5633 5633 5634 5634 5635 5636 5637 5638 5639 5640 5641 5642 5643 5644 5646 5647 5649 5650 5651 5652 5653 5654 5655 5657 5658 5659 5660 5661 5661 5662 5662 5663 5663 5663 5664 5664 5665 5665 5665 5666 5666 5666 5667 5667 5667 5668 5668 5667 5667 5667 5666 5666 5666 5666 5666 5665 5665 5664 5664 5664
5613 5613 5613 5614 5614 5615 5615 5616 5616 5617 5618 5618 5619 5619 5620 5621 5622 5622 5623 5623 5624 5624 5625 5626 5626 5627 5628 5628 5629 5629 5629 5629 5630 5632 5633 5634 5635 5636 5637 5638 5639 5641 5642 5643 5644 5645 5646 5648 5649 5650 5651 5652 5654 5655 5655 5655 5656 5656 5657 5657 5658 5658 5659 5659 5659 5659 5660 5660 5660 5660 5661 5661 5660 5660 5660 5660 5660 5660 5659 5659 5658 5658 5657 5657 5656 5656 5656
5611 5611 5611 5612 5612 5612 5612 5613 5613 5614 5614 5614 5615 5615 5616 5617 5618 5618 5619 5619 5620 5621 5621 5622 5622 5623 5623 5624 5624 5624 5625 5625 5626 5627 5629 5630 5630 5631 5632 5633 5634 5636 5637 5638 5639 5640 5641 5642 5643 5644 5645 5646 5647 5648 5648 5648 5649 5649 5650 5650 5651 5651 5652 5652 5652 5652 5653 5653 5653 5653 5653 5653 5652 5652 5652 5653 5652 5651 5651 5651 5650 5649 5649 5649 5648 5647 5647
5610 5610 5610 5610 5610 5610 5610 5610 5610 5610 5611 5611 5611 5612 5612 5613 5613 5614 5614 5615 5616 5616 5617 5618 5618 5619 5619 5619 5620 5620 5621 5622 5622 5623 5624 5625 5626 5627 5628 5628 5629 5630 5631 5633 5634 5635 5635 5636 5637 5637 5638 5640 5640 5640 5640 5640 5641 5641 5641 5642 5643 5643 5644 5644 5644 5644 5644 5644 5645 5645 5645 5644 5644 5643 5644 5644 5644 5643 5642 5641 5641 5640 5640 5640 5639 5638 5638
5609 5608 5608 5608 5608 5607 5607 5607 5607 5607 5607 5607 5607 5608 5608 5608 5608 5609 5610 5610 5611 5611 5612 5613 5614 5615 5615 5616 5616 5616 5617 5618 5619 5619 5620 5621 5621 5622 5624 5625 5625 5626 5626 5626 5627 5628 5629 5630 5631 5631 5632 5633 5633 5633 5633 5633 5633 5633 5634 5635 5635 5636 5636 5636 5636 5636 5635 5636 5636 5636 5635 5635 5635 5635 5634 5634 5634 5634 5632 5631 5630 5630 5630 5629 5629 5628 5627
5608 5607 5607 5606 5606 5605 5605 5605 5604 5604 5604 5604 5604 5603 5603 5604 5604 5604 5604 5605 5606 5606 5607 5608 5609 5610 5610 5611 5611 5611 5612 5613 5614 5615 5616 5616 5617 5618 5619 5620 5621 5621 5622 5622 5622 5622 5622 5623 5624 5624 5625 5626 5626 5626 5626 5626 5626 5626 5627 5627 5628 5628 5628 5628 5627 5627 5627 5627 5627 5626 5626 5627 5627 5627 5625 5623 5623 5623 5623 5622 5621 5620 5620 5619 5618 5617 5616
5606 5606 5605 5604 5604 5603 5602 5602 5601 5601 5601 5601 5600 5600 5599 5599 5599 5599 5599 5600 5600 5601 5602 5603 5603 5604 5604 5605 5606 5607 5607 5608 5609 5609 5610 5611 5611 5612 5613 5614 5614 5615 5616 5617 5617 5617 5617 5618 5618 5619 5620 5620 5620 5620 5620 5620 5620 5620 5620 5620 5621 5621 5620 5620 5620 5620 5619 5619 5619 5619 5619 5619 5619 5619 5618 5616 5614 5613 5613 5612 5612 5611 5611 5610 5609 5608 5606
5604 5603 5602 5602 5601 5600 5599 5598 5597 5596 5596 5596 5595 5595 5594 5594 5594 5594 5594 5595 5595 5596 5596 5597 5598 5598 5599 5600 5601 5602 5602 5603 5603 5604 5604 5605 5605 5606 5606 5607 5608 5609 5610 5610 5611 5611 5611 5611 5612 5613 5614 5614 5614 5614 5614 5614 5613 5614 5614 5614 5614 5614 5614 5613 5613 5612 5612 5612 5612 5612 5612 5612 5611 5611 5610 5609 5608 5606 5605 5604 5604 5604 5603 5603 5602 5601 5598
5601 5600 5599 5598 5597 5596 5595 5593 5592 5591 5591 5590 5589 5589 5588 5588 5588 5588 5589 5589 5590 5590 5591 5591 5592 5593 5593 5594 5595 5596 5596 5597 5598 5598 5599 5599 5600 5600 5601 5601 5602 5603 5604 5604 5604 5604 5605 5605 5606 5607 5607 5608 5607 5607 5607 5607 5607 5607 5607 5607 5607 5607 5606 5606 5605 5605 5605 5605 5605 5606 5605 5605 5604 5603 5602 5602 5601 5601 5600 5598 5597 5596 5596 5595 5595 5594 5592
5597 5596 5594 5593 5591 5590 5588 5587 5586 5584 5584 5583 5583 5582 5582 5581 5581 5582 5582 5583 5584 5585 5585 5586 5586 5587 5587 5588 5589 5590 5591 5591 5592 5593 5593 5594 5594 5595 5595 5596 5597 5597 5598 5598 5599 5599 5599 5599 5600 5600 5601 5601 5601 5600 5600 5600 5601 5601 5601 5601 5601 5600 5599 5599 5599 5599 5599 5599 5599 5599 5599 5598 5597 5597 5596 5595 5595 5595 5594 5592 5591 5590 5589 5588 5588 5588 5586
5594 5592 5590 5587 5586 5584 5581 5579 5578 5577 5576 5576 5575 5575 5575 5575 5575 5575 5576 5576 5577 5578 5579 5580 5580 5581 5581 5582 5583 5584 5585 5586 5586 5587 5588 5588 5589 5590 5590 5591 5592 5592 5593 5593 5593 5593 5593 5593 5594 5595 5595 5595 5595 5594 5595 5595 5595 5595 5595 5595 5595 5594 5593 5593 5593 5592 5592 5593 5593 5593 5592 5592 5591 5590 5590 5589 5589 5589 5588 5586 5585 5584 5583 5582 5582 5581 5581
5590 5588 5586 5583 5581 5578 5576 5573 5572 5571 5570 5569 5569 5569 5568 5569 5569 5569 5570 5570 5571 5572 5573 5573 5574 5575 5575 5576 5577 5578 5579 5580 5581 5582 5583 5584 5584 5585 5585 5586 5587 5587 5587 5588 5588 5588 5588 5588 5589 5589 5590 5589 5589 5589 5589 5589 5589 5590 5590 5590 5589 5589 5588 5588 5587 5587 5587 5587 5588 5588 5587 5586 5585 5585 5584 5584 5583 5583 5582 5581 5580 5580 5579 5578 5577 5576 5575
5587 5584 5581 5578 5575 5573 5571 5569 5567 5566 5565 5564 5563 5563 5563 5563 5563 5564 5564 5565 5566 5567 5567 5568 5568 5569 5570 5571 5572 5573 5574 5575 5576 5577 5577 5578 5579 5580 5580 5581 5582 5582 5582 5583 5583 5583 5583 5584 5584 5584 5584 5584 5584 5584 5585 5585 5584 5585 5585 5585 5584 5584 5584 5583 5583 5583 5583 5583 5583 5583 5582 5581 5580 5580 5579 5579 5579 5578 5578 5577 5576 5576 5575 5574 5573 5572 5571
5583 5580 5576 5573 5570 5568 5566 5565 5563 5562 5561 5559 5558 5558 5558 5558 5558 5559 5560 5560 5561 5562 5562 5563 5563 5564 5565 5565 5566 5567 5568 5569 5570 5571 5572 5573 5574 5574 5575 5576 5576 5577 5577 5577 5578 5578 5579 5579 5579 5579 5579 5580 5580 5580 5580 5580 5580 5580 5580 5580 5580 5579 5579 5579 5579 5578 5578 5579 5579 5578 5577 5576 5576 5576 5575 5575 5574 5574 5574 5573 5572 5572 5571 5570 5569 5568 5567
5578 5575 5571 5568 5566 5564 5562 5561 5559 5558 5557 5556 5555 5554 5554 5554 5554 5555 5555 5556 5556 5557 5558 5558 5559 5559 5560 5561 5562 5562 5563 5564 5565 5566 5567 5568 5568 5569 5570 5571 5571 5572 5572 5572 5573 5574 5574 5574 5574 5574 5575 5576 5576 5576 5576 5576 5576 5576 5576 5576 5575 5575 5575 5575 5575 5575 5575 5575 5575 5574 5573 5573 5572 5572 5572 5571 5571 5571 5570 5569 5569 5568 5567 5566 5565 5564 5563
5574 5570 5567 5564 5562 5560 5558 5557 5556 5554 5553 5553 5553 5552 5551 5551 5551 5551 5551 5552 5552 5553 5554 5554 5554 5555 5556 5557 5557 5558 5559 5560 5560 5561 5562 5563 5563 5564 5565 5566 5566 5567 5567 5568 5568 5569 5570 5570 5570 5570 5571 5571 5571 5571 5571 5572 5572 5572 5572 5572 5571 5571 5571 5571 5571 5571 5571 5571 5571 5571 5570 5570 5569 5569 5569 5568 5568 5567 5567 5566 5566 5565 5564 5563 5562 5561 5560
5570 5566 5563 5560 5558 5556 5555 5554 5553 5551 5551 5550 5550 5550 5549 5549 5548 5548 5548 5549 5549 5549 5550 5550 5550 5551 5552 5552 5553 5554 5555 5556 5556 5557 5557 5558 5559 5560 5560 5561 5562 5562 5563 5563 5564 5565 5565 5565 5565 5566 5566 5567 5567 5567 5567 5568 5568 5568 5568 5568 5568 5568 5568 5568 5568 5568 5568 5568 5568 5568 5568 5567 5567 5567 5566 5566 5565 5564 5564 5563 5563 5562 5561 5559 5559 5558 5556
5566 5562 5559 5557 5555 5553 5552 5551 5550 5549 5548 5548 5548 5548 5547 5547 5546 5546 5546 5546 5546 5546 5546 5547 5547 5548 5548 5549 5550 5550 5551 5552 5552 5553 5553 5554 5555 5555 5556 5557 5557 5558 5559 5559 5560 5560 5560 5561 5561 5561 5562 5562 5563 5563 5563 5564 5564 5564 5564 5564 5564 5565 5565 5565 5565 5565 5565 5565 5565 5565 5565 5565 5564 5564 5564 5563 5563 5562 5561 5561 5560 5558 5557 5556 5555 5554 5553
5562 5559 5556 5554 5552 5550 5549 5549 5548 5547 5546 5546 5546 5545 5545 5545 5544 5544 5544 5544 5543 5543 5543 5544 5544 5544 5545 5546 5546 5547 5547 5548 5548 5549 5549 5550 5551 5552 5552 5553 5553 5554 5555 5555 5555 5556 5556 5556 5557 5557 5558 5558 5559 5559 5559 5560 5560 5560 5561 5561 5561 5562 5562 5562 5563 5563 5563 5563 5563 5563 5562 5562 5562 5561 5561 5560 5560 5559 5558 5557 5556 5555 5554 5553 5552 5551 5550
5559 5556 5554 5552 5550 5548 5547 5546 5545 5545 5544 5544 5543 5543 5543 5543 5543 5542 5542 5542 5541 5541 5541 5541 5541 5541 5542 5542 5543 5544 5544 5545 5545 5545 5546 5546 5547 5548 5548 5549 5550 5550 5551 5551 5551 5552 5552 5552 5553 5553 5554 5554 5555 5555 5556 5556 5557 5557 5558 5558 5559 5559 5560 5560 5560 5560 5560 5560 5560 5560 5560 5559 5559 5559 5558 5558 5557 5556 5555 5554 5553 5552 5551 5550 5549 5548 5547
5557 5555 5552 5550 5548 5546 5545 5544 5543 5543 5542 5542 5541 5541 5541 5541 5541 5541 5540 5540 5539 5538 5538 5538 5538 5539 5539 5539 5540 5540 5541 5541 5542 5542 5542 5543 5543 5544 5544 5545 5546 5546 5547 5547 5547 5548 5548 5548 5549 5549 5550 5550 5551 5551 5552 5553 5554 5554 5555 5556 5556 5557 5557 5557 5557 5558 5558 5558 5558 5557 5557 5557 5556 5556 5555 5555 5554 5554 5553 5552 5551 5550 5549 5548 5547 5545 5544
5556 5553 5551 5549 5547 5545 5543 5542 5541 5541 5540 5540 5540 5540 5539 5539 5539 5539 5538 5537 5537 5536 5536 5536 5536 5536 5536 5536 5537 5537 5538 5538 5538 5539 5539 5540 5540 5540 5541 5541 5542 5542 5543 5543 5544 5544 5545 5545 5546 5546 5546 5546 5547 5547 5548 5550 5551 5552 5552 5553 5554 5554 5554 5555 5555 5555 5555 5555 5555 5555 5554 5554 5554 5553 5553 5552 5552 5551 5550 5549 5548 5547 5546 5545 5544 5542 5541
5554 5551 5549 5547 5545 5543 5541 5540 5539 5539 5538 5538 5538 5538 5537 5537 5537 5537 5536 5536 5535 5534 5534 5534 5534 5534 5534 5534 5534 5534 5535 5535 5535 5536 5536 5537 5537 5537 5538 5538 5538 5539 5539 5540 5540 5541 5541 5542 5542 5542 5542 5543 5543 5544 5545 5547 5548 5549 5550 5551 5551 5551 5552 5552 5552 5552 5552 5552 5552 5552 5552 5551 5551 5551 5550 5550 5549 5548 5547 5546 5545 5544 5543 5542 5541 5540 5538
5552 5549 5547 5545 5543 5541 5540 5538 5537 5537 5536 5536 5536 5536 5535 5535 5535 5534 5534 5534 5533 5532 5532 5532 5531 5531 5532 5532 5532 5532 5532 5532 5533 5533 5533 5533 5534 5534 5534 5535 5535 5535 5536 5537 5537 5538 5538 5538 5538 5538 5539 5539 5540 5541 5543 5544 5546 5546 5547 5548 5548 5549 5549 5549 5549 5549 5549 5549 5550 5549 5549 5549 5548 5548 5547 5547 5546 5545 5545 5544 5543 5541 5540 5539 5538 5537 5536
5550 5548 5546 5544 5542 5540 5538 5537 5536 5535 5534 5534 5534 5533 5533 5533 5532 5532 5532 5532 5531 5530 5530 5530 5530 5529 5529 5529 5529 5530 5530 5530 5530 5530 5530 5531 5531 5531 5531 5532 5532 5532 5533 5533 5534 5534 5535 5535 5535 5535 5536 5537 5537 5539 5540 5542 5543 5544 5544 5545 5545 5546 5546 5546 5546 5547 5547 5547 5547 5547 5547 5546 5546 5545 5545 5544 5543 5543 5542 5541 5540 5539 5537 5536 5535 5534 5533
5548 5546 5544 5542 5540 5539 5537 5536 5535 5534 5533 5532 5531 5531 5531 5531 5530 5530 5530 5529 5529 5528 5528 5528 5528 5527 5527 5527 5527 5527 5527 5527 5528 5528 5528 5528 5528 5528 5529 5529 5529 5529 5530 5530 5531 5531 5531 5532 5532 5532 5533 5534 5535 5536 5538 5539 5540 5541 5542 5542 5543 5543 5543 5543 5544 5544 5544 5544 5544 5544 5544 5543 5543 5542 5542 5541 5540 5540 5539 5538 5537 5536 5534 5533 5532 5531 5530
5547 5545 5542 5541 5539 5537 5536 5534 5533 5532 5531 5530 5530 5529 5529 5528 5528 5527 5527 5527 5526 5526 5526 5526 5525 5525 5525 5525 5525 5525 5525 5525 5525 5525 5525 5525 5525 5525 5526 5526 5526 5526 5527 5527 5527 5528 5528 5528 5529 5529 5530 5531 5532 5534 5535 5536 5537 5538 5539 5539 5540 5540 5541 5541 5541 5541 5541 5541 5541 5541 5541 5541 5540 5540 5539 5538 5537 5536 5536 5535 5534 5533 5531 5530 5529 5528 5527
5546 5543 5541 5539 5538 5536 5534 5533 5532 5530 5529 5529 5528 5527 5527 5526 5526 5525 5525 5524 5524 5524 5523 5523 5523 5522 5522 5522 5522 5522 5522 5522 5522 5522 5522 5522 5522 5522 5523 5523 5523 5523 5524 5524 5524 5525 5525 5526 5526 5527 5528 5529 5530 5531 5532 5533 5534 5535 5536 5536 5537 5537 5538 5538 5538 5538 5538 5539 5539 5539 5538 5538 5537 5537 5536 5535 5534 5534 5533 5532 5531 5530 5528 5527 5526 5525 5524
5544 5542 5540 5538 5536 5535 5533 5531 5530 5529 5528 5527 5526 5526 5525 5525 5524 5523 5523 5522 5522 5521 5521 5521 5520 5520 5520 5519 5519 5519 5519 5519 5519 5519 5520 5519 5519 5519 5520 5520 5521 5521 5521 5521 5521 5522 5522 5523 5524 5524 5525 5526 5527 5528 5529 5530 5531 5532 5533 5533 5534 5534 5535 5535 5535 5536 5536 5536 5536 5536 5536 5535 5535 5534 5533 5533 5532 5531 5530 5529 5528 5527 5525 5524 5523 5522 5521
5542 5540 5538 5537 5535 5533 5531 5530 5529 5527 5526 5525 5524 5523 5523 5522 5522 5521 5521 5520 5520 5519 5519 5518 5518 5517 5517 5517 5517 5517 5517 5517 5517 5517 5517 5517 5517 5517 5517 5517 5518 5518 5518 5518 5519 5519 5519 5520 5521 5522 5522 5523 5524 5525 5526 5527 5528 5529 5530 5530 5531 5531 5532 5532 5533 5533 5533 5533 5533 5533 5533 5533 5532 5532 5531 5530 5529 5528 5527 5526 5525 5524 5523 5521 5520 5519 5518
5540 5538 5537 5535 5533 5531 5530 5528 5527 5526 5524 5523 5522 5521 5520 5520 5520 5519 5519 5518 5518 5517 5516 5516 5515 5515 5515 5515 5515 5515 5515 5514 5514 5514 5514 5514 5515 5515 5515 5515 5515 5515 5515 5516 5516 5516 5517 5518 5518 5519 5520 5521 5522 5523 5523 5524 5525 5526 5526 5527 5528 5528 5529 5529 5530 5530 5530 5530 5530 5530 5530 5530 5530 5529 5529 5528 5527 5526 5525 5524 5523 5521 5520 5519 5518 5517 5516
5539 5537 5535 5533 5531 5530 5528 5527 5525 5524 5523 5521 5520 5519 5518 5518 5518 5517 5517 5516 5516 5515 5514 5514 5514 5513 5513 5513 5513 5513 5512 5512 5511 5511 5512 5512 5512 5512 5513 5513 5513 5513 5513 5513 5513 5514 5515 5515 5516 5517 5517 5518 5519 5520 5520 5521 5522 5523 5523 5524 5525 5526 5526 5527 5527 5527 5527 5528 5528 5528 5527 5527 5527 5527 5527 5526 5525 5524 5523 5522 5521 5520 5518 5517 5516 5515 5514
5537 5535 5533 5531 5530 5528 5526 5525 5523 5522 5521 5520 5519 5518 5517 5516 5516 5516 5515 5515 5514 5514 5513 5513 5512 5512 5512 5511 5511 5511 5510 5510 5509 5509 5510 5510 5510 5510 5510 5510 5511 5511 5511 5511 5511 5512 5512 5513 5514 5514 5515 5516 5516 5517 5518 5518 5519 5520 5521 5522 5522 5523 5524 5524 5524 5525 5525 5525 5525 5525 5525 5525 5525 5524 5524 5524 5523 5522 5521 5520 5519 5518 5517 5516 5515 5514 5513
5535 5533 5531 5529 5528 5526 5525 5523 5522 5520 5519 5518 5517 5516 5515 5515 5514 5514 5514 5513 5513 5512 5512 5511 5511 5511 5510 5510 5510 5510 5509 5509 5509 5508 5508 5508 5508 5508 5508 5508 5508 5509 5509 5509 5509 5510 5510 5511 5511 5512 5512 5513 5514 5515 5515 5516 5516 5517 5518 5519 5519 5520 5521 5521 5521 5522 5522 5522 5522 5522 5522 5522 5522 5522 5521 5521 5521 5520 5520 5519 5518 5517 5516 5515 5514 5513 5512